Regional Weather Roundup
Issued by NWS New Orleans/Baton Rouge, LA

Home | Current Version | Previous Version | Graphics & Text | Print | Product List | Glossary On
Versions: 1 2 3 4 5 6 7 8 9 10 11 12 13 14 15 16 17 18 19 20 21 22 23 24 25 26 27 28 29 30 31 32 33 34 35 36 37 38 39 40 41 42 43 44 45 46 47 48 49 50
680
ASUS44 KLIX 211705
RWRLIX
NEW ORLEANS REGIONAL WEATHER ROUNDUP
NATIONAL WEATHER SERVICE NEW ORLEANS LA
1200 PM CDT TUE OCT 21 2014

NOTE: "FAIR" INDICATES FEW OR NO CLOUDS BELOW 12,000 FEET WITH NO
      SIGNIFICANT WEATHER AND/OR OBSTRUCTIONS TO VISIBILITY.
      SKY/WX - SKY CONDITION AND SIGNIFICANT WEATHER.
      TMP - AIR TEMPERATURE.     DP    - DEWPOINT TEMPERATURE.
      RH  - RELATIVE HUMIDITY.   PRES  - PRESSURE.
      HI  - HEAT INDEX.          WCI   - WIND CHILL INDEX.

*  THESE STATIONS ARE NOT NWS OR FAA STATIONS AND ARE NOT UNDER
   NWS QUALITY CONTROL.

LAZ038-040-048-061>063-065>067-069-211800-
SOUTHEAST LOUISIANA

CITY           SKY/WX    TMP DP  RH WIND       PRES   REMARKS
N.O. AUDUBON   NOT AVBL
N.O. INTL ARPT MOSUNNY   75  54  47 NE10      30.06S
N.O. LAKEFRONT SUNNY     75  55  49 NE8       30.07S
N.O. DOWNTOWN*   N/A     77  50  38 CALM      30.06F
SLIDELL        SUNNY     75  53  46 NE6       30.06S
BATON ROUGE    SUNNY     77  53  43 N6        30.07F
BOOTHVILLE     SUNNY     76  60  57 NE12      30.04F
BELLE CHASSE   SUNNY     77  51  40 NE8       30.05F
BOGALUSA*        N/A     77  51  39 E5        30.08F
NEW ROADS*       N/A     75  54  48 N5        30.08S
GONZALES*        N/A     76  55  47 NE6       30.06F
HAMMOND*       SUNNY     79  48  34 E6        30.08S
HOUMA*         SUNNY     77  57  50 NE12      30.05F
PORT FOURCHON* SUNNY     75  63  64 NE15      30.07S

$$

MSZ070-080>082-211800-
SOUTHERN MISSISSIPPI

CITY           SKY/WX    TMP DP  RH WIND       PRES   REMARKS
MCCOMB         SUNNY     74  49  41 VRB6      30.09S
GULFPORT       SUNNY     76  52  43 N9        30.04F
BILOXI         SUNNY     76  52  43 NE7       30.04F
PASCAGOULA     SUNNY     77  53  43 NE9       30.04F

$$

COASTAL OBSERVATIONS
LAKE AND NEARSHORE STATIONS

STATION/POSITION TIME  TEMP    WIND        PRES    WAVE
                       AIR SEA DIR/SP/G            HT/PER
                 (UTC) (F)     (DEG/KT/KT) (MB)    (FT/S)
PASCAGOULA       1700   76      30/  6/  9 1016.8
WAVELAND YACHT   1700   72      50/  4/  6 1017.1
GRAND ISLE       1700   75 76   50/ 10/ 14 1017.6
SOUTHWEST PASS   1700   83 84   60/ 14/ 16 1017.0
NEW CANAL        1700   71 71   50/  9/ 10 1018.3
SHELL BEACH      1700   72 69   40/ 10/ 12 1017.6

OFFSHORE STATIONS

STATION/POSITION TIME  TEMP    WIND        PRES    WAVE
                       AIR SEA DIR/SP/G            HT/PER
                 (UTC) (F)     (DEG/KT/KT) (MB)    (FT/S)
64 S DAUPHIN ISL 1621   74 80   40/ 12/ 16 1017.3    2/ 4

$$




USA.gov is the U.S. government's official web portal to all federal, state and local government web resources and services.